Date String (YYYY-MM-DD hh:mm:ss) UTC,Instrument flags,Ambient pressure (hPa),Sample flow (lpm),Bypass flow (lpm),Sample temperature (°C),Ambient temperature (°C),ASC tube jacket temperature (°C),LED temperature (°C),Box temperature (°C),Sample RH (%),Span deviation,Mass concentration (μg/m³),Mass concentration (μg/m³),Mass concentration (μg/m³)
DateTimeUTC,F1_M11,P_M11,Q1_M11,Q2_M11,T1_M11,T2_M11,T3_M11,T4_M11,T5_M11,U1_M11,ZSPAN_M11,X0_M11,X2_M11,X1_M11
2022-05-27 07:00:00,,0826.5,4.99,0.00,30.0,29.1,00.0,38.9,31.9,12.6,0000.0,0009.04,0002.70,0001.77
2022-05-27 07:01:00,,0826.5,5.00,0.00,30.0,29.1,00.0,38.9,31.9,12.4,0000.0,0009.57,0002.72,0001.79
2022-05-27 07:02:00,,0826.4,5.00,0.00,30.1,29.1,00.0,38.9,31.9,12.4,0000.0,0009.72,0002.86,0001.80
2022-05-27 07:03:00,,0826.4,4.99,0.00,30.1,29.1,00.0,38.9,31.9,12.5,0000.0,0009.86,0002.96,0001.81
2022-05-27 07:04:00,,0826.4,5.03,0.00,30.1,29.2,00.0,38.9,31.9,12.4,0000.0,0009.73,0002.98,0001.82
2022-05-27 07:05:00,,0826.4,4.99,0.00,30.1,29.2,00.0,38.9,32.0,12.2,0000.0,0009.64,0002.99,0001.83
2022-05-27 07:06:00,,0826.4,5.00,0.00,30.1,29.2,00.0,39.0,32.0,12.1,0000.0,0009.51,0003.01,0001.83
2022-05-27 07:07:00,,0826.5,5.01,0.00,30.1,29.2,00.0,39.0,32.0,12.2,0000.0,0009.20,0003.02,0001.83
2022-05-27 07:08:00,,0826.5,4.99,0.00,30.1,29.2,00.0,39.0,32.0,12.4,0000.0,0008.78,0003.05,0001.83
2022-05-27 07:09:00,,0826.4,5.00,0.00,30.1,29.2,00.0,39.0,32.0,12.5,0000.0,0008.38,0003.11,0001.83
2022-05-27 07:10:00,,0826.4,4.99,0.00,30.2,29.2,00.0,39.0,32.0,12.5,0000.0,0008.19,0003.12,0001.83
2022-05-27 07:11:00,,0826.4,5.00,0.00,30.2,29.2,00.0,39.0,32.0,12.5,0000.0,0007.79,0003.14,0001.85
2022-05-27 07:12:00,,0826.4,5.01,0.00,30.2,29.2,00.0,39.0,32.0,12.5,0000.0,0007.37,0003.17,0001.86
2022-05-27 07:13:00,,0826.4,5.00,0.00,30.2,29.2,00.0,39.0,32.0,11.7,0000.0,0007.56,0003.19,0001.88
2022-05-27 07:14:00,,0826.4,5.00,0.00,30.2,29.3,00.0,39.0,32.0,12.1,0000.0,0007.82,0003.22,0001.88
2022-05-27 07:15:00,,0826.4,5.00,0.00,30.2,29.3,00.0,39.1,32.0,12.3,0000.0,0007.95,0003.26,0001.86
2022-05-27 07:16:00,,0826.4,4.99,0.00,30.2,29.3,00.0,39.1,32.0,12.2,0000.0,0008.12,0003.28,0001.86
2022-05-27 07:17:00,,0826.4,4.99,0.00,30.2,29.3,00.0,39.1,32.1,11.7,0000.0,0008.26,0003.28,0001.86
2022-05-27 07:18:00,,0826.4,5.00,0.00,30.2,29.1,00.0,39.1,32.0,11.7,0000.0,0008.98,0003.24,0001.86
2022-05-27 07:19:00,,0826.4,5.00,0.00,30.2,28.1,00.0,39.0,31.8,11.8,0000.0,0009.05,0003.21,0001.87
2022-05-27 07:20:00,,0826.4,4.99,0.00,30.1,27.6,00.0,38.9,31.6,12.2,0000.0,0008.58,0003.18,0001.86
2022-05-27 07:21:00,,0826.4,5.01,0.00,30.0,27.5,00.0,38.9,31.5,12.0,0000.0,0008.57,0003.18,0001.86
2022-05-27 07:22:00,,0826.3,4.99,0.00,29.9,27.5,00.0,38.9,31.4,12.0,0000.0,0008.42,0003.22,0001.85
2022-05-27 07:23:00,,0826.3,5.00,0.00,29.8,27.6,00.0,38.8,31.4,12.2,0000.0,0008.44,0003.22,0001.83
2022-05-27 07:24:00,,0826.3,5.01,0.00,29.8,27.7,00.0,38.8,31.4,12.3,0000.0,0008.39,0003.20,0001.81
2022-05-27 07:25:00,,0826.3,5.01,0.00,29.8,27.9,00.0,38.8,31.5,12.2,0000.0,0008.14,0003.16,0001.80
2022-05-27 07:26:00,,0826.3,4.99,0.00,29.8,28.0,00.0,38.8,31.5,12.2,0000.0,0007.91,0003.06,0001.78
2022-05-27 07:27:00,,0826.3,4.99,0.00,29.7,28.1,00.0,38.8,31.5,12.2,0000.0,0007.84,0002.98,0001.78
2022-05-27 07:28:00,,0826.3,5.01,0.00,29.7,28.2,00.0,38.7,31.5,12.3,0000.0,0007.71,0002.95,0001.78
2022-05-27 07:29:00,,0826.3,5.00,0.00,29.7,28.3,00.0,38.7,31.5,12.5,0000.0,0007.00,0002.95,0001.78
2022-05-27 07:30:00,,0826.2,4.99,0.00,29.8,28.4,00.0,38.7,31.5,12.8,0000.0,0005.90,0002.94,0001.77
2022-05-27 07:31:00,,0826.2,5.00,0.00,29.8,28.5,00.0,38.7,31.6,12.7,0000.0,0005.97,0002.95,0001.76
2022-05-27 07:32:00,,0826.2,5.01,0.00,29.8,28.5,00.0,38.7,31.6,12.6,0000.0,0006.22,0003.02,0001.76
2022-05-27 07:33:00,,0826.2,4.99,0.00,29.8,28.6,00.0,38.7,31.6,12.9,0000.0,0006.20,0003.00,0001.75
2022-05-27 07:34:00,,0826.2,5.00,0.00,29.8,28.6,00.0,38.7,31.6,13.6,0000.0,0006.20,0002.96,0001.75
2022-05-27 07:35:00,,0826.2,4.99,0.00,29.8,28.6,00.0,38.7,31.6,13.2,0000.0,0005.88,0002.84,0001.75
2022-05-27 07:36:00,,0826.2,5.01,0.00,29.8,28.7,00.0,38.7,31.6,13.1,0000.0,0005.37,0002.78,0001.75
2022-05-27 07:37:00,,0826.2,5.00,0.00,29.8,28.7,00.0,38.7,31.6,13.1,0000.0,0005.46,0002.82,0001.74
2022-05-27 07:38:00,,0826.1,4.99,0.00,29.8,28.7,00.0,38.7,31.7,12.8,0000.0,0005.32,0002.80,0001.73
2022-05-27 07:39:00,,0826.1,4.99,0.00,29.8,28.7,00.0,38.7,31.7,12.6,0000.0,0005.17,0002.80,0001.73
2022-05-27 07:40:00,,0826.1,4.99,0.00,29.8,28.7,00.0,38.7,31.7,12.6,0000.0,0004.99,0002.77,0001.72
2022-05-27 07:41:00,,0826.1,5.01,0.00,29.8,28.8,00.0,38.7,31.7,12.7,0000.0,0004.94,0002.75,0001.72
2022-05-27 07:42:00,,0826.1,4.99,0.00,29.9,28.8,00.0,38.7,31.7,12.8,0000.0,0004.80,0002.72,0001.73
2022-05-27 07:43:00,,0826.2,5.00,0.00,29.9,28.8,00.0,38.7,31.7,12.7,0000.0,0004.66,0002.67,0001.72
2022-05-27 07:44:00,,0826.1,5.00,0.00,29.9,28.8,00.0,38.8,31.7,12.5,0000.0,0004.57,0002.61,0001.72
2022-05-27 07:45:00,,0826.1,5.00,0.00,29.9,28.8,00.0,38.8,31.7,12.5,0000.0,0004.46,0002.56,0001.72
2022-05-27 07:46:00,,0826.1,5.00,0.00,29.9,28.8,00.0,38.8,31.7,12.2,0000.0,0004.66,0002.58,0001.70
2022-05-27 07:47:00,,0826.1,5.00,0.00,29.9,28.8,00.0,38.8,31.7,12.6,0000.0,0004.66,0002.60,0001.71
2022-05-27 07:48:00,,0826.1,5.00,0.00,29.9,28.8,00.0,38.8,31.7,12.2,0000.0,0004.76,0002.61,0001.73
2022-05-27 07:49:00,,0826.1,4.99,0.00,29.9,28.8,00.0,38.8,31.7,12.4,0000.0,0005.41,0002.67,0001.74
2022-05-27 07:50:00,,0826.1,4.99,0.00,29.9,28.8,00.0,38.8,31.8,12.5,0000.0,0006.05,0002.70,0001.74
2022-05-27 07:51:00,,0826.1,5.01,0.00,29.9,28.8,00.0,38.8,31.7,12.1,0000.0,0006.12,0002.72,0001.75
2022-05-27 07:52:00,,0826.1,5.00,0.00,29.9,28.8,00.0,38.8,31.7,12.1,0000.0,0006.22,0002.74,0001.77
2022-05-27 07:53:00,,0826.1,4.99,0.00,29.9,28.8,00.0,38.8,31.8,11.8,0000.0,0006.40,0002.81,0001.78
2022-05-27 07:54:00,,0826.1,5.00,0.00,29.9,28.8,00.0,38.8,31.8,11.5,0000.0,0007.18,0002.81,0001.78
2022-05-27 07:55:00,,0826.1,5.01,0.00,29.9,28.8,00.0,38.8,31.8,11.8,0000.0,0007.07,0002.79,0001.81
2022-05-27 07:56:00,,0826.0,5.01,0.00,29.9,28.8,00.0,38.8,31.8,11.4,0000.0,0006.95,0002.79,0001.82
2022-05-27 07:57:00,,0826.0,4.98,0.00,29.9,28.8,00.0,38.8,31.8,11.4,0000.0,0007.33,0002.78,0001.84
2022-05-27 07:58:00,,0826.0,5.00,0.00,29.9,28.8,00.0,38.8,31.8,11.5,0000.0,0008.24,0002.80,0001.84
2022-05-27 07:59:00,,0826.0,5.00,0.00,30.0,28.8,00.0,38.8,31.8,11.3,0000.0,0008.08,0002.73,0001.83
